Gaithersburg, MD

1:59 PM EST on December 08, 2019 (GMT -0500)
Montgomery County

Weather History for KGAI - November, 2019

Change the Weather History Date:

Friday, November 22, 2019

  Actual Average (WUND) Record (WUND)
Temperature  
Mean Temperature 43 °F -  
Max Temperature 51 °F - - (-1)
Min Temperature 33 °F - - (-1)
Degree Days  
Heating Degree Days 22    
Moisture  
Dew Point 36 °F    
Average Humidity 69    
Maximum Humidity 93    
Minimum Humidity 54    
Precipitation  
Precipitation 0.12 in - - ()
Sea Level Pressure  
Sea Level Pressure 29.98 in    
Wind  
Wind Speed 5 mph (West)    
Max Wind Speed 15 mph    
Max Gust Speed 22 mph    
Visibility 10 miles    
Events Rain    
Averages and records for this station are not official NWS values.
T = Trace of Precipitation, MM = Missing Value Source: NWS Daily Summary

Daily Weather History Graph

Daily Weather History Graph

Search for Another Location

Airport or City:

Astronomy

Nov. 22, 2019 Rise Set
Actual Time 6:59 AM EST 4:49 PM EST
Civil Twilight 6:30 AM EST 5:18 PM EST
Nautical Twilight 5:57 AM EST 5:51 PM EST
Astronomical Twilight 5:25 AM EST 6:23 PM EST
Moon 2:05 AM EST (11/22) 2:47 PM EST (11/22)
Length of Visible Light 10h 48m
Length of Day
9h 50m
Waning Crescent, 20% of the Moon is Illuminated
Nov 22
Waning Crescent
Nov 26
New
Dec 4
First Quarter
Dec 12
Full
Dec 18
Last Quarter

Hourly Weather History & Observations

Time (EST) Temp. Windchill Dew Point Humidity Pressure Visibility Wind Dir Wind Speed Gust Speed Precip Events Conditions
12:56 AM 48.9 °F - 36.0 °F 61% 30.01 in 10.0 mi South 4.6 mph - N/A   Scattered Clouds
1:56 AM 46.9 °F - 36.0 °F 66% 30.01 in 10.0 mi SSW 3.5 mph - N/A   Partly Cloudy
2:56 AM 45.0 °F - 36.0 °F 71% 29.98 in 10.0 mi Calm Calm - N/A   Clear
3:56 AM 45.0 °F 43.5 °F 36.0 °F 71% 29.95 in 10.0 mi SSE 3.5 mph - N/A   Clear
4:56 AM 45.0 °F - 36.0 °F 71% 29.94 in 10.0 mi Calm Calm - N/A   Clear
5:56 AM 44.1 °F 42.5 °F 37.0 °F 76% 29.93 in 10.0 mi SSE 3.5 mph - N/A   Mostly Cloudy
6:56 AM 46.0 °F 44.8 °F 37.9 °F 73% 29.90 in 10.0 mi SSE 3.5 mph - N/A   Clear
7:56 AM 48.9 °F - 39.0 °F 69% 29.89 in 10.0 mi South 8.1 mph - N/A   Clear
8:56 AM 51.1 °F - 39.9 °F 66% 29.89 in 10.0 mi WSW 5.8 mph - N/A   Scattered Clouds
9:56 AM 48.0 °F - 43.0 °F 83% 29.91 in 7.0 mi West 5.8 mph - 0.02 in Rain Light Rain
10:56 AM 48.0 °F - 45.0 °F 89% 29.90 in 5.0 mi SW 4.6 mph - 0.06 in Rain Rain
11:56 AM 48.9 °F - 46.9 °F 93% 29.88 in 10.0 mi West 5.8 mph - 0.04 in   Overcast
12:56 PM 50.0 °F - 48.0 °F 93% 29.89 in 7.0 mi West 3.5 mph - N/A   Unknown
1:21 PM 51.8 °F - 46.4 °F 82% 29.85 in 10.0 mi West 5.8 mph - N/A   Overcast
1:56 PM 51.1 °F - 39.0 °F 63% 29.89 in 10.0 mi WNW 12.7 mph 21.9 mph N/A   Overcast
3:56 PM 48.9 °F - 33.1 °F 54% 29.94 in 10.0 mi WNW 15.0 mph 21.9 mph N/A   Clear
4:56 PM 48.0 °F - 32.0 °F 54% 29.97 in 10.0 mi Variable 4.6 mph - N/A   Clear
5:56 PM 46.0 °F 41.0 °F 30.0 °F 54% 30.02 in 10.0 mi NW 10.4 mph - N/A   Clear
6:56 PM 44.1 °F 37.1 °F 28.9 °F 55% 30.06 in 10.0 mi WNW 15.0 mph - N/A   Clear
7:56 PM 42.1 °F 40.2 °F 28.0 °F 58% 30.09 in 10.0 mi NNW 3.5 mph - N/A   Clear
8:56 PM 39.9 °F 37.8 °F 27.0 °F 60% 30.11 in 10.0 mi NW 3.5 mph - N/A   Clear
9:56 PM 39.0 °F - 26.1 °F 60% 30.13 in 10.0 mi Calm Calm - N/A   Clear
10:56 PM 35.1 °F 31.0 °F 26.1 °F 70% 30.12 in 10.0 mi NW 4.6 mph - N/A   Clear
11:56 PM 33.1 °F - 26.1 °F 75% 30.14 in 10.0 mi Calm Calm - N/A   Clear